Location: Zagreb
(45.8000°N, 16.0000°E)
Time: 13:43:49
(UTC+02:00)

Transit 2A Rocket - Pass Details

Date: 10 August 2022
Orbit: 593 x 907 km, 66.7° (Epoch: 25 September)

Event Time Altitude Azimuth Distance (km) Brightness Sun altitude
Rises 20:24:33 0° 229° (SW) 2,996 8.4 -2.8°
Reaches altitude 10° 20:27:00 10° 236° (SW) 2,043 7.7 -3.2°
Maximum altitude 20:31:22 43° 309° (NW) 869 6.1 -3.8°
Drops below altitude 10° 20:35:32 10° 22° (NNE) 1,951 7.2 -4.5°
Sets 20:37:51 0° 29° (NNE) 2,845 8.0 -4.8°
